S51DM-13 Weather Reports


time (UTC)temp
C
wind
direction
speed
KPH
gust
KPH
rain 1hr
cm
rain 24hr
cm
rain mn
cm
humidity
%
barometer
mb
20260503053605 9 90 0.0 1.6 0.00 0.00 0.00 82 1017.8
20260503052703 8 0 0.0 0.0 0.00 0.00 0.00 85 1017.8
20260503052019 8 0 0.0 0.0 0.00 0.00 0.00 86 1017.7
20260503050903 7 0 0.0 0.0 0.00 0.00 0.00 88 1017.6
20260503050005 7 0 0.0 0.0 0.00 0.00 0.00 89 1017.7
20260503045403 6 0 0.0 0.0 0.00 0.00 0.00 90 1017.7
20260503044503 6 0 0.0 0.0 0.00 0.00 0.00 91 1017.6
20260503043605 6 0 0.0 0.0 0.00 0.00 0.00 91 1017.6
20260503042705 6 0 0.0 0.0 0.00 0.00 0.00 91 1017.7
20260503041803 6 0 0.0 0.0 0.00 0.00 0.00 92 1017.5
20260503040905 6 0 0.0 0.0 0.00 0.00 0.00 92 1017.7
20260503040005 5 0 0.0 0.0 0.00 0.00 0.00 91 1017.5
20260503035403 6 0 0.0 0.0 0.00 0.00 0.00 91 1017.2
20260503034503 6 0 0.0 0.0 0.00 0.00 0.00 92 1017.2
20260503033603 6 0 0.0 0.0 0.00 0.00 0.00 92 1017.5
20260503032703 6 0 0.0 0.0 0.00 0.00 0.00 91 1017.3
20260503031804 6 0 0.0 0.0 0.00 0.00 0.00 92 1017.7
20260503030905 5 0 0.0 0.0 0.00 0.00 0.00 91 1017.4
20260503030005 6 0 0.0 0.0 0.00 0.00 0.00 90 1017.4
20260503025403 6 0 0.0 0.0 0.00 0.00 0.00 90 1017.5
20260503024718 6 0 0.0 0.0 0.00 0.00 0.00 90 1017.7
20260503023605 6 0 0.0 0.0 0.00 0.00 0.00 90 1017.7
20260503022705 6 0 0.0 0.0 0.00 0.00 0.00 90 1017.5
20260503021805 6 0 0.0 0.0 0.00 0.00 0.00 89 1017.5
20260503020903 6 0 0.0 0.0 0.00 0.00 0.00 90 1017.6
20260503020005 6 0 0.0 0.0 0.00 0.00 0.00 90 1017.7
20260503015620 6 0 0.0 0.0 0.00 0.00 0.00 90 1017.8
20260503014505 6 0 0.0 0.0 0.00 0.00 0.00 90 1017.9
20260503013605 6 0 0.0 0.0 0.00 0.00 0.00 90 1017.7
20260503012705 6 0 0.0 0.0 0.00 0.00 0.00 89 1017.8
20260503012020 6 0 0.0 0.0 0.00 0.00 0.00 89 1017.9
20260503010903 6 0 0.0 0.0 0.00 0.00 0.00 88 1018.2
20260503010004 7 0 0.0 0.0 0.00 0.00 0.00 88 1017.9
20260503005403 7 0 0.0 0.0 0.00 0.00 0.00 88 1017.8
20260503004505 7 0 0.0 0.0 0.00 0.00 0.00 87 1018.1
20260503003603 7 0 0.0 0.0 0.00 0.00 0.00 87 1017.9
20260503002703 7 0 0.0 0.0 0.00 0.00 0.00 87 1018.2
20260503002017 7 0 0.0 0.0 0.00 0.00 0.00 88 1017.9
20260503000903 7 0 0.0 0.0 0.00 0.00 0.00 86 1018.2
20260503000005 7 0 0.0 0.0 0.00 0.00 0.00 85 1018.3
20260502235404 7 0 0.0 0.0 0.00 0.00 0.00 85 1018.2
20260502234719 7 0 0.0 0.0 0.00 0.00 0.00 85 1018.4
20260502233603 7 0 0.0 0.0 0.00 0.00 0.00 85 1018.5
20260502232703 7 0 0.0 0.0 0.00 0.00 0.00 84 1018.6
20260502231804 8 0 0.0 0.0 0.00 0.00 0.00 82 1018.5
20260502230903 8 0 0.0 0.0 0.00 0.00 0.00 81 1018.7
20260502230219 8 0 0.0 0.0 0.00 0.00 0.00 82 1018.5
20260502225405 8 0 0.0 0.0 0.00 0.00 0.00 80 1018.6
20260502224718 8 0 0.0 0.0 0.00 0.00 0.00 81 1018.5
20260502223603 8 0 0.0 0.0 0.00 0.00 0.00 80 1018.9
20260502222705 8 0 0.0 0.0 0.00 0.00 0.00 79 1018.6
20260502221805 9 0 0.0 0.0 0.00 0.00 0.00 77 1018.6
20260502221118 9 0 0.0 0.0 0.00 0.00 0.00 76 1018.8
20260502220005 9 0 0.0 0.0 0.00 0.00 0.00 76 1018.6
20260502215405 9 0 0.0 0.0 0.00 0.00 0.00 76 1018.8
20260502214503 10 0 0.0 0.0 0.00 0.00 0.00 75 1018.7
20260502213605 10 0 0.0 0.0 0.00 0.00 0.00 73 1018.6
20260502212705 10 0 0.0 0.0 0.00 0.00 0.00 73 1018.6
20260502212018 10 0 0.0 0.0 0.00 0.00 0.00 72 1018.6
20260502210903 11 0 0.0 0.0 0.00 0.00 0.00 72 1018.7
20260502210004 11 0 0.0 0.0 0.00 0.00 0.00 71 1018.8
20260502205405 11 0 0.0 0.0 0.00 0.00 0.00 71 1019.0
20260502204505 11 0 0.0 0.0 0.00 0.00 0.00 70 1019.0
20260502203819 11 0 0.0 0.0 0.00 0.00 0.00 69 1018.8
20260502202918 12 0 0.0 0.0 0.00 0.00 0.00 68 1018.8
20260502202020 12 0 0.0 0.0 0.00 0.00 0.00 67 1018.9
20260502200905 12 0 0.0 0.0 0.00 0.00 0.00 67 1019.1
20260502200005 12 0 0.0 0.0 0.00 0.00 0.00 65 1019.0
20260502195405 12 0 0.0 0.0 0.00 0.00 0.00 66 1018.7
20260502194503 13 0 0.0 0.0 0.00 0.00 0.00 64 1018.9
20260502193603 13 0 0.0 0.0 0.00 0.00 0.00 62 1018.7
20260502192703 13 0 0.0 0.0 0.00 0.00 0.00 60 1018.5
20260502191805 14 0 0.0 0.0 0.00 0.00 0.00 58 1018.7
20260502190903 14 0 0.0 0.0 0.00 0.00 0.00 58 1018.7
20260502190004 15 0 0.0 0.0 0.00 0.00 0.00 57 1018.6
20260502185403 15 0 0.0 0.0 0.00 0.00 0.00 57 1018.6
20260502184505 15 0 0.0 0.0 0.00 0.00 0.00 54 1018.6
20260502183605 16 0 0.0 0.0 0.00 0.00 0.00 53 1018.4
20260502182019 16 0 0.0 0.0 0.00 0.00 0.00 50 1018.5
20260502180905 17 0 0.0 0.0 0.00 0.00 0.00 48 1018.3
20260502180220 17 0 0.0 0.0 0.00 0.00 0.00 46 1018.3
20260502170217 23 90 1.6 3.2 0.00 0.00 0.00 29 1018.3
20260502163819 25 114 1.6 3.2 0.00 0.00 0.00 27 1018.2
20260502162703 25 13 1.6 3.2 0.00 0.00 0.00 26 1018.5
20260502161804 25 347 1.6 3.2 0.00 0.00 0.00 26 1018.4
20260502160905 24 312 1.6 4.8 0.00 0.00 0.00 26 1018.5
20260502151803 26 108 0.0 4.8 0.00 0.00 0.00 25 1018.9
20260502151119 25 95 1.6 6.4 0.00 0.00 0.00 27 1019.1
20260502123604 23 120 3.2 9.7 0.00 0.00 0.00 31 1020.8
20260502122705 23 19 3.2 12.9 0.00 0.00 0.00 30 1020.9
20260502121803 24 51 3.2 12.9 0.00 0.00 0.00 30 1021.0
20260502120904 24 82 4.8 12.9 0.00 0.00 0.00 28 1021.2
20260502115403 24 24 3.2 6.4 0.00 0.00 0.00 26 1021.3
20260502114505 24 19 1.6 6.4 0.00 0.00 0.00 28 1021.3
20260502113605 23 22 3.2 12.9 0.00 0.00 0.00 30 1021.6
20260502112705 22 329 4.8 12.9 0.00 0.00 0.00 31 1021.4
20260502111805 23 30 3.2 12.9 0.00 0.00 0.00 30 1021.8
20260502110905 23 321 3.2 9.7 0.00 0.00 0.00 30 1021.6
20260502110219 22 288 3.2 11.3 0.00 0.00 0.00 31 1021.7
20260502105404 22 351 3.2 12.9 0.00 0.00 0.00 30 1022.0
20260502104505 22 348 3.2 12.9 0.00 0.00 0.00 28 1022.1
20260502103605 22 282 3.2 12.9 0.00 0.00 0.00 29 1022.2
20260502102705 22 241 3.2 11.3 0.00 0.00 0.00 31 1022.4
20260502101805 22 15 3.2 11.3 0.00 0.00 0.00 31 1022.3
20260502101119 22 246 1.6 12.9 0.00 0.00 0.00 33 1022.6
20260502090905 22 101 1.6 6.4 0.00 0.00 0.00 31 1023.1
20260502070905 18 33 1.6 3.2 0.00 0.00 0.00 46 1023.6
20260502070005 17 91 0.0 3.2 0.00 0.00 0.00 48 1023.7
20260502065404 16 94 0.0 3.2 0.00 0.00 0.00 50 1023.6
20260502064718 15 104 1.6 3.2 0.00 0.00 0.00 52 1023.6
20260502063603 13 132 0.0 1.6 0.00 0.00 0.00 60 1023.6
20260502062704 12 115 0.0 3.2 0.00 0.00 0.00 62 1023.6
20260502061805 12 110 0.0 3.2 0.00 0.00 0.00 65 1023.6
20260502060903 11 112 0.0 3.2 0.00 0.00 0.00 66 1023.7
20260502060005 11 118 1.6 3.2 0.00 0.00 0.00 68 1023.9
20260502055405 10 124 1.6 3.2 0.00 0.00 0.00 69 1023.7
20260502054718 10 118 0.0 3.2 0.00 0.00 0.00 72 1023.7